| time (UTC) | temp F | wind direction | speed MPH | gust MPH | rain 1hr in | rain 24hr in | rain mn in | humidity % | barometer mb |
| 20260905191039 | 91 | 206 | 0.0 | 4.0 | 0.00 | 0.00 | 0.00 | 22 | 1003.8 |
| 20260905190538 | 90 | 136 | 0.0 | 3.0 | 0.00 | 0.00 | 0.00 | 23 | 1003.8 |
| 20260905190045 | 90 | 249 | 0.0 | 8.0 | 0.00 | 0.00 | 0.00 | 22 | 1003.9 |
| 20260905185540 | 89 | 139 | 0.0 | 8.0 | 0.00 | 0.00 | 0.00 | 23 | 1003.9 |
| 20260905185037 | 89 | 140 | 0.0 | 9.0 | 0.00 | 0.00 | 0.00 | 23 | 1004.0 |
| 20260905184536 | 90 | 141 | 2.0 | 9.0 | 0.00 | 0.00 | 0.00 | 23 | 1004.0 |
| 20260905184037 | 89 | 162 | 0.0 | 8.0 | 0.00 | 0.00 | 0.00 | 23 | 1004.1 |
| 20260905183532 | 89 | 148 | 3.0 | 8.0 | 0.00 | 0.00 | 0.00 | 24 | 1004.1 |
| 20260905183031 | 88 | 243 | 0.0 | 4.0 | 0.00 | 0.00 | 0.00 | 24 | 1004.1 |
| 20260905182629 | 88 | 256 | 0.0 | 9.0 | 0.00 | 0.00 | 0.00 | 24 | 1004.3 |
| 20260905182029 | 87 | 154 | 1.0 | 10.0 | 0.00 | 0.00 | 0.00 | 25 | 1004.3 |
| 20260905181528 | 87 | 155 | 4.0 | 10.0 | 0.00 | 0.00 | 0.00 | 24 | 1004.4 |
| 20260905181029 | 86 | 247 | 0.0 | 8.0 | 0.00 | 0.00 | 0.00 | 25 | 1004.5 |
| 20260905180528 | 86 | 154 | 0.0 | 11.0 | 0.00 | 0.00 | 0.00 | 25 | 1004.5 |
| 20260905180041 | 87 | 154 | 0.0 | 11.0 | 0.00 | 0.00 | 0.00 | 25 | 1004.5 |
| 20260905175529 | 87 | 156 | 0.0 | 9.0 | 0.00 | 0.00 | 0.00 | 25 | 1004.5 |
| 20260905175028 | 87 | 161 | 0.0 | 9.0 | 0.00 | 0.00 | 0.00 | 24 | 1004.6 |
| 20260905174526 | 87 | 166 | 0.0 | 10.0 | 0.00 | 0.00 | 0.00 | 27 | 1004.7 |
| 20260905174025 | 86 | 168 | 1.0 | 10.0 | 0.00 | 0.00 | 0.00 | 25 | 1004.7 |
| 20260905173524 | 86 | 175 | 0.0 | 4.0 | 0.00 | 0.00 | 0.00 | 26 | 1004.7 |
| 20260905173022 | 86 | 177 | 0.0 | 5.0 | 0.00 | 0.00 | 0.00 | 28 | 1004.7 |
| 20260905172522 | 86 | 192 | 0.0 | 5.0 | 0.00 | 0.00 | 0.00 | 26 | 1004.7 |
| 20260905172022 | 87 | 200 | 0.0 | 4.0 | 0.00 | 0.00 | 0.00 | 27 | 1004.6 |
| 20260905171525 | 87 | 212 | 0.0 | 9.0 | 0.00 | 0.00 | 0.00 | 26 | 1004.7 |
| 20260905171021 | 87 | 165 | 0.0 | 12.0 | 0.00 | 0.00 | 0.00 | 27 | 1004.6 |
| 20260905170521 | 87 | 166 | 2.0 | 12.0 | 0.00 | 0.00 | 0.00 | 26 | 1004.6 |
| 20260905170021 | 87 | 173 | 0.0 | 0.0 | 0.00 | 0.00 | 0.00 | 26 | 1004.5 |
| 20260905165522 | 86 | 173 | 0.0 | 0.0 | 0.00 | 0.00 | 0.00 | 27 | 1004.5 |
| 20260905165017 | 86 | 175 | 0.0 | 0.0 | 0.00 | 0.00 | 0.00 | 30 | 1004.5 |
| 20260905164516 | 85 | 175 | 0.0 | 1.0 | 0.00 | 0.00 | 0.00 | 29 | 1004.5 |
| 20260905164013 | 84 | 174 | 0.0 | 1.0 | 0.00 | 0.00 | 0.00 | 29 | 1004.5 |
| 20260905163516 | 84 | 174 | 0.0 | 0.0 | 0.00 | 0.00 | 0.00 | 29 | 1004.6 |
| 20260905163011 | 83 | 174 | 0.0 | 0.0 | 0.00 | 0.00 | 0.00 | 33 | 1004.5 |
| 20260905162510 | 83 | 174 | 0.0 | 0.0 | 0.00 | 0.00 | 0.00 | 32 | 1004.5 |
| 20260905162008 | 82 | 174 | 0.0 | 0.0 | 0.00 | 0.00 | 0.00 | 31 | 1004.4 |
| 20260905161516 | 82 | 175 | 0.0 | 0.0 | 0.00 | 0.00 | 0.00 | 33 | 1004.4 |
| 20260905161006 | 82 | 175 | 0.0 | 0.0 | 0.00 | 0.00 | 0.00 | 34 | 1004.4 |
| 20260905160504 | 81 | 174 | 0.0 | 0.0 | 0.00 | 0.00 | 0.00 | 34 | 1004.3 |
| 20260905160006 | 81 | 174 | 0.0 | 0.0 | 0.00 | 0.00 | 0.00 | 34 | 1004.3 |
| 20260905155500 | 80 | 175 | 0.0 | 0.0 | 0.00 | 0.00 | 0.00 | 37 | 1004.2 |
| 20260905155105 | 80 | 175 | 0.0 | 0.0 | 0.00 | 0.00 | 0.00 | 39 | 1004.4 |
| 20260905154604 | 79 | 174 | 0.0 | 0.0 | 0.00 | 0.00 | 0.00 | 39 | 1004.3 |
| 20260905154056 | 79 | 174 | 0.0 | 0.0 | 0.00 | 0.00 | 0.00 | 40 | 1004.3 |
| 20260905153559 | 79 | 175 | 0.0 | 0.0 | 0.00 | 0.00 | 0.00 | 39 | 1004.3 |
| 20260905153054 | 78 | 175 | 0.0 | 0.0 | 0.00 | 0.00 | 0.00 | 40 | 1004.3 |
| 20260905152553 | 78 | 175 | 0.0 | 0.0 | 0.00 | 0.00 | 0.00 | 40 | 1004.3 |
| 20260905152051 | 77 | 174 | 0.0 | 0.0 | 0.00 | 0.00 | 0.00 | 39 | 1004.4 |
| 20260905151550 | 77 | 175 | 0.0 | 0.0 | 0.00 | 0.00 | 0.00 | 43 | 1004.4 |
| 20260905151048 | 76 | 174 | 0.0 | 0.0 | 0.00 | 0.00 | 0.00 | 41 | 1004.4 |
| 20260905150548 | 76 | 174 | 0.0 | 0.0 | 0.00 | 0.00 | 0.00 | 43 | 1004.5 |
| 20260905150045 | 75 | 174 | 0.0 | 0.0 | 0.00 | 0.00 | 0.00 | 44 | 1004.5 |
| 20260905145544 | 74 | 174 | 0.0 | 0.0 | 0.00 | 0.00 | 0.00 | 42 | 1004.5 |
| 20260905145042 | 73 | 174 | 0.0 | 0.0 | 0.00 | 0.00 | 0.00 | 46 | 1004.5 |
| 20260905144541 | 73 | 174 | 0.0 | 0.0 | 0.00 | 0.00 | 0.00 | 46 | 1004.6 |
| 20260905144038 | 72 | 174 | 0.0 | 0.0 | 0.00 | 0.00 | 0.00 | 52 | 1004.5 |
| 20260905143541 | 71 | 174 | 0.0 | 0.0 | 0.00 | 0.00 | 0.00 | 50 | 1004.6 |
| 20260905143036 | 71 | 174 | 0.0 | 0.0 | 0.00 | 0.00 | 0.00 | 51 | 1004.6 |
| 20260905142537 | 70 | 174 | 0.0 | 0.0 | 0.00 | 0.00 | 0.00 | 54 | 1004.6 |
| 20260905142034 | 69 | 174 | 0.0 | 0.0 | 0.00 | 0.00 | 0.00 | 55 | 1004.6 |
| 20260905141531 | 68 | 174 | 0.0 | 0.0 | 0.00 | 0.00 | 0.00 | 57 | 1004.6 |
| 20260905141034 | 67 | 174 | 0.0 | 0.0 | 0.00 | 0.00 | 0.00 | 59 | 1004.6 |
| 20260905140531 | 67 | 174 | 0.0 | 0.0 | 0.00 | 0.00 | 0.00 | 59 | 1004.6 |
| 20260905140027 | 66 | 175 | 0.0 | 0.0 | 0.00 | 0.00 | 0.00 | 60 | 1004.5 |
| 20260905135525 | 65 | 174 | 0.0 | 0.0 | 0.00 | 0.00 | 0.00 | 63 | 1004.5 |
| 20260905135026 | 64 | 175 | 0.0 | 0.0 | 0.00 | 0.00 | 0.00 | 67 | 1004.4 |
| 20260905134521 | 62 | 175 | 0.0 | 0.0 | 0.00 | 0.00 | 0.00 | 71 | 1004.3 |
| 20260905134020 | 61 | 174 | 0.0 | 0.0 | 0.00 | 0.00 | 0.00 | 75 | 1004.4 |
| 20260905133520 | 60 | 175 | 0.0 | 0.0 | 0.00 | 0.00 | 0.00 | 78 | 1004.4 |
| 20260905133024 | 59 | 175 | 0.0 | 0.0 | 0.00 | 0.00 | 0.00 | 79 | 1004.3 |
| 20260905132516 | 58 | 175 | 0.0 | 0.0 | 0.00 | 0.00 | 0.00 | 80 | 1004.3 |
| 20260905132015 | 58 | 175 | 0.0 | 0.0 | 0.00 | 0.00 | 0.00 | 79 | 1004.4 |
| 20260905131513 | 57 | 175 | 0.0 | 0.0 | 0.00 | 0.00 | 0.00 | 79 | 1004.4 |
| 20260905131012 | 57 | 175 | 0.0 | 0.0 | 0.00 | 0.00 | 0.00 | 78 | 1004.3 |
| 20260905130511 | 57 | 175 | 0.0 | 0.0 | 0.00 | 0.00 | 0.00 | 76 | 1004.1 |
| 20260905130009 | 57 | 175 | 0.0 | 0.0 | 0.00 | 0.00 | 0.00 | 76 | 1004.2 |
| 20260905125508 | 57 | 175 | 0.0 | 0.0 | 0.00 | 0.00 | 0.00 | 75 | 1004.0 |
| 20260905125006 | 57 | 175 | 0.0 | 0.0 | 0.00 | 0.00 | 0.00 | 73 | 1004.0 |
| 20260905124505 | 58 | 175 | 0.0 | 0.0 | 0.00 | 0.00 | 0.00 | 73 | 1003.9 |
| 20260905124002 | 58 | 175 | 0.0 | 0.0 | 0.00 | 0.00 | 0.00 | 71 | 1003.8 |
| 20260905123105 | 59 | 175 | 0.0 | 0.0 | 0.00 | 0.00 | 0.00 | 70 | 1003.7 |
| 20260905122601 | 59 | 175 | 0.0 | 0.0 | 0.00 | 0.00 | 0.00 | 69 | 1003.7 |
| 20260905122103 | 60 | 175 | 0.0 | 0.0 | 0.00 | 0.00 | 0.00 | 69 | 1003.6 |
| 20260905121600 | 60 | 175 | 0.0 | 0.0 | 0.00 | 0.00 | 0.00 | 69 | 1003.5 |
| 20260905121100 | 61 | 175 | 0.0 | 0.0 | 0.00 | 0.00 | 0.00 | 68 | 1003.6 |
| 20260905120555 | 61 | 175 | 0.0 | 0.0 | 0.00 | 0.00 | 0.00 | 66 | 1003.7 |
| 20260905120105 | 62 | 175 | 0.0 | 0.0 | 0.00 | 0.00 | 0.00 | 67 | 1003.3 |
| 20260905115552 | 62 | 175 | 0.0 | 0.0 | 0.00 | 0.00 | 0.00 | 66 | 1003.3 |
| 20260905115051 | 62 | 175 | 0.0 | 0.0 | 0.00 | 0.00 | 0.00 | 66 | 1003.3 |
| 20260905114601 | 63 | 175 | 0.0 | 0.0 | 0.00 | 0.00 | 0.00 | 65 | 1003.2 |
| 20260905114049 | 63 | 175 | 0.0 | 0.0 | 0.00 | 0.00 | 0.00 | 65 | 1003.2 |
| 20260905113548 | 63 | 175 | 0.0 | 0.0 | 0.00 | 0.00 | 0.00 | 64 | 1003.1 |
| 20260905113055 | 63 | 175 | 0.0 | 0.0 | 0.00 | 0.00 | 0.00 | 65 | 1003.1 |
| 20260905112547 | 63 | 175 | 0.0 | 0.0 | 0.00 | 0.00 | 0.00 | 65 | 1003.2 |
| 20260905112047 | 63 | 175 | 0.0 | 0.0 | 0.00 | 0.00 | 0.00 | 65 | 1003.3 |
| 20260905111633 | 64 | 175 | 0.0 | 0.0 | 0.00 | 0.00 | 0.00 | 65 | 1003.4 |
| 20260905111047 | 63 | 175 | 0.0 | 0.0 | 0.00 | 0.00 | 0.00 | 66 | 1003.3 |
| 20260905110545 | 63 | 175 | 0.0 | 0.0 | 0.00 | 0.00 | 0.00 | 65 | 1003.2 |
| 20260905110046 | 63 | 175 | 0.0 | 0.0 | 0.00 | 0.00 | 0.00 | 65 | 1003.2 |
| 20260905105546 | 63 | 175 | 0.0 | 0.0 | 0.00 | 0.00 | 0.00 | 65 | 1003.2 |
| 20260905105045 | 63 | 175 | 0.0 | 0.0 | 0.00 | 0.00 | 0.00 | 65 | 1003.1 |
| 20260905104546 | 64 | 175 | 0.0 | 0.0 | 0.00 | 0.00 | 0.00 | 65 | 1003.0 |
| 20260905104043 | 64 | 175 | 0.0 | 0.0 | 0.00 | 0.00 | 0.00 | 64 | 1003.0 |
| 20260905103544 | 64 | 175 | 0.0 | 0.0 | 0.00 | 0.00 | 0.00 | 64 | 1003.0 |
| 20260905103043 | 64 | 175 | 0.0 | 0.0 | 0.00 | 0.00 | 0.00 | 63 | 1003.1 |
| 20260905102544 | 64 | 175 | 0.0 | 0.0 | 0.00 | 0.00 | 0.00 | 63 | 1003.0 |
| 20260905102040 | 65 | 175 | 0.0 | 0.0 | 0.00 | 0.00 | 0.00 | 63 | 1003.3 |
| 20260905101543 | 65 | 175 | 0.0 | 0.0 | 0.00 | 0.00 | 0.00 | 62 | 1003.3 |
| 20260905101039 | 65 | 175 | 0.0 | 0.0 | 0.00 | 0.00 | 0.00 | 62 | 1003.2 |
| 20260905100539 | 65 | 175 | 0.0 | 0.0 | 0.00 | 0.00 | 0.00 | 61 | 1003.3 |
| 20260905100038 | 65 | 175 | 0.0 | 0.0 | 0.00 | 0.00 | 0.00 | 61 | 1003.3 |
| 20260905095537 | 66 | 175 | 0.0 | 0.0 | 0.00 | 0.00 | 0.00 | 59 | 1003.3 |
| 20260905095036 | 66 | 175 | 0.0 | 0.0 | 0.00 | 0.00 | 0.00 | 59 | 1003.3 |
| 20260905094536 | 66 | 175 | 0.0 | 0.0 | 0.00 | 0.00 | 0.00 | 60 | 1003.2 |
| 20260905094036 | 66 | 175 | 0.0 | 0.0 | 0.00 | 0.00 | 0.00 | 59 | 1003.2 |
| 20260905093534 | 66 | 175 | 0.0 | 0.0 | 0.00 | 0.00 | 0.00 | 59 | 1003.2 |
| 20260905093039 | 66 | 175 | 0.0 | 0.0 | 0.00 | 0.00 | 0.00 | 59 | 1003.1 |
| 20260905092533 | 67 | 175 | 0.0 | 0.0 | 0.00 | 0.00 | 0.00 | 58 | 1003.1 |
| 20260905092033 | 67 | 175 | 0.0 | 0.0 | 0.00 | 0.00 | 0.00 | 58 | 1003.1 |
| 20260905091533 | 67 | 175 | 0.0 | 0.0 | 0.00 | 0.00 | 0.00 | 58 | 1003.1 |
| 20260905091032 | 67 | 175 | 0.0 | 0.0 | 0.00 | 0.00 | 0.00 | 58 | 1003.0 |
| 20260905090531 | 67 | 175 | 0.0 | 0.0 | 0.00 | 0.00 | 0.00 | 58 | 1003.0 |
| 20260905090031 | 67 | 175 | 0.0 | 0.0 | 0.00 | 0.00 | 0.00 | 57 | 1003.0 |
| 20260905085530 | 67 | 175 | 0.0 | 0.0 | 0.00 | 0.00 | 0.00 | 56 | 1003.1 |
| 20260905085028 | 68 | 175 | 0.0 | 0.0 | 0.00 | 0.00 | 0.00 | 56 | 1003.2 |
| 20260905084532 | 68 | 175 | 0.0 | 0.0 | 0.00 | 0.00 | 0.00 | 56 | 1003.2 |
| 20260905084028 | 68 | 175 | 0.0 | 2.0 | 0.00 | 0.00 | 0.00 | 56 | 1003.2 |
| 20260905083531 | 68 | 175 | 0.0 | 2.0 | 0.00 | 0.00 | 0.00 | 56 | 1003.2 |
| 20260905083027 | 68 | 176 | 0.0 | 0.0 | 0.00 | 0.00 | 0.00 | 56 | 1003.3 |
| 20260905082526 | 68 | 177 | 0.0 | 0.0 | 0.00 | 0.00 | 0.00 | 56 | 1003.2 |
| 20260905082026 | 68 | 177 | 0.0 | 0.0 | 0.00 | 0.00 | 0.00 | 55 | 1003.1 |
| 20260905081526 | 68 | 183 | 0.0 | 0.0 | 0.00 | 0.00 | 0.00 | 55 | 1003.1 |
| 20260905081025 | 68 | 184 | 0.0 | 0.0 | 0.00 | 0.00 | 0.00 | 55 | 1003.1 |
| 20260905080526 | 68 | 185 | 0.0 | 0.0 | 0.00 | 0.00 | 0.00 | 55 | 1003.1 |
| 20260905080031 | 68 | 185 | 0.0 | 0.0 | 0.00 | 0.00 | 0.00 | 55 | 1003.1 |
| 20260905075525 | 68 | 187 | 0.0 | 0.0 | 0.00 | 0.00 | 0.00 | 55 | 1003.1 |
| 20260905075025 | 68 | 189 | 0.0 | 2.0 | 0.00 | 0.00 | 0.00 | 55 | 1003.0 |
| 20260905074526 | 68 | 170 | 0.0 | 2.0 | 0.00 | 0.00 | 0.00 | 55 | 1003.0 |
| 20260905074024 | 68 | 184 | 0.0 | 1.0 | 0.00 | 0.00 | 0.00 | 55 | 1003.1 |
| 20260905073523 | 69 | 170 | 0.0 | 1.0 | 0.00 | 0.00 | 0.00 | 55 | 1003.2 |
| 20260905073029 | 69 | 160 | 0.0 | 0.0 | 0.00 | 0.00 | 0.00 | 55 | 1003.1 |
| 20260905072522 | 69 | 190 | 0.0 | 0.0 | 0.00 | 0.00 | 0.00 | 54 | 1003.2 |
| 20260905072021 | 69 | 190 | 0.0 | 0.0 | 0.00 | 0.00 | 0.00 | 54 | 1003.1 |
| 20260905071521 | 69 | 179 | 0.0 | 1.0 | 0.00 | 0.00 | 0.00 | 54 | 1003.1 |
| 20260905071019 | 69 | 179 | 0.0 | 1.0 | 0.00 | 0.00 | 0.00 | 54 | 1003.1 |
| 20260905070523 | 69 | 181 | 0.0 | 0.0 | 0.00 | 0.00 | 0.00 | 54 | 1003.4 |
| 20260905070033 | 69 | 185 | 0.0 | 1.0 | 0.00 | 0.00 | 0.00 | 54 | 1003.3 |
| 20260905065520 | 69 | 198 | 0.0 | 2.0 | 0.00 | 0.00 | 0.00 | 53 | 1003.4 |
| 20260905065019 | 69 | 195 | 0.0 | 2.0 | 0.00 | 0.00 | 0.00 | 53 | 1003.3 |
| 20260905064636 | 69 | 200 | 0.0 | 3.0 | 0.00 | 0.00 | 0.00 | 53 | 1003.4 |
| 20260905064018 | 69 | 204 | 0.0 | 3.0 | 0.00 | 0.00 | 0.00 | 53 | 1003.4 |
| 20260905063517 | 69 | 208 | 0.0 | 2.0 | 0.00 | 0.00 | 0.00 | 53 | 1003.4 |
| 20260905063017 | 69 | 208 | 0.0 | 0.0 | 0.00 | 0.00 | 0.00 | 53 | 1003.4 |
| 20260905062517 | 69 | 209 | 0.0 | 0.0 | 0.00 | 0.00 | 0.00 | 53 | 1003.6 |
| 20260905062016 | 69 | 212 | 0.0 | 1.0 | 0.00 | 0.00 | 0.00 | 53 | 1003.5 |
| 20260905061516 | 69 | 208 | 0.0 | 1.0 | 0.00 | 0.00 | 0.00 | 53 | 1003.5 |
| 20260905061014 | 70 | 206 | 0.0 | 0.0 | 0.00 | 0.00 | 0.00 | 52 | 1003.4 |
| 20260905060514 | 70 | 207 | 0.0 | 0.0 | 0.00 | 0.00 | 0.00 | 52 | 1003.3 |
| 20260905060013 | 70 | 207 | 0.0 | 0.0 | 0.00 | 0.00 | 0.00 | 52 | 1003.2 |
| 20260905055513 | 70 | 207 | 0.0 | 1.0 | 0.00 | 0.00 | 0.00 | 52 | 1003.2 |
| 20260905055017 | 70 | 208 | 0.0 | 1.0 | 0.00 | 0.00 | 0.00 | 51 | 1003.3 |
| 20260905054518 | 71 | 207 | 0.0 | 0.0 | 0.00 | 0.00 | 0.00 | 50 | 1003.2 |
| 20260905054015 | 71 | 202 | 0.0 | 0.0 | 0.00 | 0.00 | 0.00 | 50 | 1003.2 |
| 20260905053512 | 71 | 225 | 0.0 | 0.0 | 0.00 | 0.00 | 0.00 | 49 | 1003.1 |
| 20260905053012 | 72 | 225 | 0.0 | 0.0 | 0.00 | 0.00 | 0.00 | 48 | 1003.2 |
| 20260905052513 | 72 | 225 | 0.0 | 1.0 | 0.00 | 0.00 | 0.00 | 48 | 1003.1 |
| 20260905052011 | 72 | 227 | 0.0 | 1.0 | 0.00 | 0.00 | 0.00 | 47 | 1003.1 |
| 20260905051521 | 73 | 218 | 0.0 | 1.0 | 0.00 | 0.00 | 0.00 | 47 | 1003.3 |
| 20260905051011 | 73 | 218 | 0.0 | 1.0 | 0.00 | 0.00 | 0.00 | 46 | 1003.2 |
| 20260905050511 | 74 | 198 | 0.0 | 1.0 | 0.00 | 0.00 | 0.00 | 46 | 1003.2 |
| 20260905050012 | 74 | 184 | 0.0 | 5.0 | 0.00 | 0.00 | 0.00 | 45 | 1003.2 |
| 20260905045511 | 74 | 165 | 0.0 | 5.0 | 0.00 | 0.00 | 0.00 | 45 | 1003.1 |
| 20260905045012 | 74 | 154 | 0.0 | 13.0 | 0.00 | 0.00 | 0.00 | 44 | 1003.0 |
| 20260905044511 | 75 | 177 | 3.0 | 13.0 | 0.00 | 0.00 | 0.00 | 44 | 1003.0 |
| 20260905044009 | 75 | 154 | 0.0 | 15.0 | 0.00 | 0.00 | 0.00 | 43 | 1003.0 |
| 20260905043510 | 75 | 142 | 0.0 | 15.0 | 0.00 | 0.00 | 0.00 | 43 | 1003.0 |
| 20260905043010 | 75 | 189 | 1.0 | 13.0 | 0.00 | 0.00 | 0.00 | 42 | 1003.0 |
| 20260905042509 | 75 | 157 | 6.0 | 15.0 | 0.00 | 0.00 | 0.00 | 42 | 1003.1 |
| 20260905042009 | 75 | 144 | 5.0 | 15.0 | 0.00 | 0.00 | 0.00 | 42 | 1003.1 |
| 20260905041509 | 75 | 124 | 2.0 | 15.0 | 0.00 | 0.00 | 0.00 | 41 | 1003.2 |
| 20260905041008 | 75 | 160 | 2.0 | 16.0 | 0.00 | 0.00 | 0.00 | 41 | 1003.0 |
| 20260905040508 | 75 | 146 | 4.0 | 15.0 | 0.00 | 0.00 | 0.00 | 40 | 1003.1 |
| 20260905040015 | 75 | 148 | 4.0 | 15.0 | 0.00 | 0.00 | 0.00 | 41 | 1003.0 |
| 20260905035510 | 75 | 156 | 2.0 | 9.0 | 0.00 | 0.00 | 0.00 | 40 | 1003.1 |
| 20260905035008 | 75 | 169 | 0.0 | 10.0 | 0.00 | 0.00 | 0.00 | 40 | 1003.0 |
| 20260905034522 | 75 | 159 | 1.0 | 10.0 | 0.00 | 0.00 | 0.00 | 40 | 1003.0 |
| 20260905034010 | 75 | 154 | 2.0 | 14.0 | 0.00 | 0.00 | 0.00 | 40 | 1003.0 |
| 20260905033506 | 75 | 158 | 4.0 | 14.0 | 0.00 | 0.00 | 0.00 | 40 | 1002.9 |
| 20260905033007 | 76 | 169 | 1.0 | 13.0 | 0.00 | 0.00 | 0.00 | 39 | 1002.9 |
| 20260905032608 | 76 | 137 | 5.0 | 14.0 | 0.00 | 0.00 | 0.00 | 39 | 1002.9 |
| 20260905032006 | 76 | 136 | 5.0 | 17.0 | 0.00 | 0.00 | 0.00 | 38 | 1002.9 |
| 20260905031506 | 76 | 150 | 6.0 | 14.0 | 0.00 | 0.00 | 0.00 | 37 | 1002.9 |
| 20260905031006 | 76 | 147 | 4.0 | 14.0 | 0.00 | 0.00 | 0.00 | 37 | 1002.9 |
| 20260905030505 | 76 | 166 | 3.0 | 14.0 | 0.00 | 0.00 | 0.00 | 37 | 1002.8 |
| 20260905030006 | 76 | 154 | 2.0 | 17.0 | 0.00 | 0.00 | 0.00 | 36 | 1002.7 |
| 20260905025505 | 76 | 150 | 6.0 | 17.0 | 0.00 | 0.00 | 0.00 | 36 | 1002.7 |
| 20260905025005 | 77 | 166 | 5.0 | 15.0 | 0.00 | 0.00 | 0.00 | 35 | 1002.6 |
| 20260905024507 | 77 | 170 | 5.0 | 16.0 | 0.00 | 0.00 | 0.00 | 35 | 1002.6 |
| 20260905024004 | 77 | 148 | 5.0 | 19.0 | 0.00 | 0.00 | 0.00 | 34 | 1002.6 |
| 20260905023504 | 77 | 141 | 5.0 | 20.0 | 0.00 | 0.00 | 0.00 | 33 | 1002.5 |
| 20260905023005 | 77 | 151 | 9.0 | 24.0 | 0.00 | 0.00 | 0.00 | 33 | 1002.4 |
| 20260905022508 | 77 | 158 | 8.0 | 24.0 | 0.00 | 0.00 | 0.00 | 33 | 1002.4 |
| 20260905022003 | 77 | 146 | 2.0 | 10.0 | 0.00 | 0.00 | 0.00 | 34 | 1002.4 |
| 20260905021502 | 77 | 154 | 0.0 | 15.0 | 0.00 | 0.00 | 0.00 | 33 | 1002.4 |
| 20260905021002 | 78 | 165 | 1.0 | 17.0 | 0.00 | 0.00 | 0.00 | 33 | 1002.2 |
| 20260905020502 | 78 | 151 | 4.0 | 23.0 | 0.00 | 0.00 | 0.00 | 33 | 1002.2 |
| 20260905020003 | 78 | 140 | 12.0 | 23.0 | 0.00 | 0.00 | 0.00 | 33 | 1002.1 |
| 20260905015502 | 78 | 162 | 7.0 | 28.0 | 0.00 | 0.00 | 0.00 | 33 | 1002.0 |
| 20260905015004 | 78 | 146 | 12.0 | 28.0 | 0.00 | 0.00 | 0.00 | 32 | 1002.0 |
| 20260905014502 | 79 | 146 | 7.0 | 22.0 | 0.00 | 0.00 | 0.00 | 32 | 1002.0 |
| 20260905014101 | 79 | 148 | 11.0 | 22.0 | 0.00 | 0.00 | 0.00 | 31 | 1002.0 |
| 20260905013503 | 79 | 159 | 8.0 | 20.0 | 0.00 | 0.00 | 0.00 | 30 | 1002.0 |
| 20260905013101 | 79 | 164 | 6.0 | 18.0 | 0.00 | 0.00 | 0.00 | 31 | 1001.9 |
| 20260905013000 | 79 | 135 | 6.0 | 22.0 | 0.00 | 0.00 | 0.00 | 30 | 1001.9 |
| 20260905012602 | 80 | 129 | 2.0 | 22.0 | 0.00 | 0.00 | 0.00 | 31 | 1001.7 |
| 20260905012501 | 80 | 143 | 4.0 | 22.0 | 0.00 | 0.00 | 0.00 | 31 | 1001.8 |
| 20260905012105 | 81 | 156 | 9.0 | 21.0 | 0.00 | 0.00 | 0.00 | 30 | 1001.8 |
| 20260905011606 | 82 | 136 | 3.0 | 16.0 | 0.00 | 0.00 | 0.00 | 29 | 1002.0 |
| 20260905011100 | 82 | 150 | 9.0 | 16.0 | 0.00 | 0.00 | 0.00 | 28 | 1001.5 |
| 20260905010603 | 82 | 134 | 6.0 | 18.0 | 0.00 | 0.00 | 0.00 | 28 | 1001.6 |
| 20260905010100 | 82 | 140 | 6.0 | 18.0 | 0.00 | 0.00 | 0.00 | 28 | 1001.5 |
| 20260905005700 | 82 | 148 | 1.0 | 9.0 | 0.00 | 0.00 | 0.00 | 28 | 1001.5 |
| 20260905005100 | 83 | 129 | 1.0 | 13.0 | 0.00 | 0.00 | 0.00 | 27 | 1001.5 |
| 20260905004604 | 83 | 137 | 3.0 | 14.0 | 0.00 | 0.00 | 0.00 | 26 | 1001.4 |
| 20260905004059 | 84 | 154 | 4.0 | 15.0 | 0.00 | 0.00 | 0.00 | 26 | 1001.4 |
| 20260905003559 | 84 | 148 | 6.0 | 21.0 | 0.00 | 0.00 | 0.00 | 26 | 1001.5 |
| 20260905003100 | 85 | 147 | 5.0 | 16.0 | 0.00 | 0.00 | 0.00 | 26 | 1001.4 |
| 20260905002558 | 85 | 142 | 7.0 | 16.0 | 0.00 | 0.00 | 0.00 | 26 | 1001.5 |
| 20260905002058 | 85 | 143 | 7.0 | 20.0 | 0.00 | 0.00 | 0.00 | 25 | 1001.4 |
| 20260905001607 | 85 | 148 | 7.0 | 20.0 | 0.00 | 0.00 | 0.00 | 25 | 1001.4 |
| 20260905001057 | 85 | 145 | 6.0 | 17.0 | 0.00 | 0.00 | 0.00 | 25 | 1001.3 |
| 20260905000558 | 86 | 156 | 9.0 | 21.0 | 0.00 | 0.00 | 0.00 | 24 | 1001.3 |
| 20260905000104 | 86 | 148 | 8.0 | 21.0 | 0.00 | 0.00 | 0.00 | 25 | 1001.3 |
| 20260904235558 | 86 | 160 | 4.0 | 20.0 | 0.00 | 0.00 | 0.00 | 24 | 1001.1 |
| 20260904235059 | 86 | 150 | 7.0 | 20.0 | 0.00 | 0.00 | 0.00 | 24 | 1001.1 |
| 20260904234606 | 86 | 158 | 0.0 | 14.0 | 0.00 | 0.00 | 0.00 | 26 | 1001.1 |
| 20260904234056 | 86 | 142 | 4.0 | 14.0 | 0.00 | 0.00 | 0.00 | 24 | 1001.1 |
| 20260904233556 | 86 | 142 | 3.0 | 18.0 | 0.00 | 0.00 | 0.00 | 24 | 1001.1 |
| 20260904233057 | 86 | 135 | 4.0 | 18.0 | 0.00 | 0.00 | 0.00 | 25 | 1001.1 |
| 20260904232556 | 86 | 133 | 4.0 | 13.0 | 0.00 | 0.00 | 0.00 | 25 | 1001.2 |
| 20260904232056 | 86 | 142 | 2.0 | 16.0 | 0.00 | 0.00 | 0.00 | 25 | 1001.1 |
| 20260904231555 | 86 | 134 | 2.0 | 16.0 | 0.00 | 0.00 | 0.00 | 25 | 1001.2 |
| 20260904231055 | 86 | 136 | 2.0 | 16.0 | 0.00 | 0.00 | 0.00 | 25 | 1001.2 |
| 20260904230557 | 86 | 129 | 5.0 | 16.0 | 0.00 | 0.00 | 0.00 | 25 | 1001.2 |
| 20260904230055 | 86 | 138 | 4.0 | 16.0 | 0.00 | 0.00 | 0.00 | 25 | 1001.2 |
| 20260904225657 | 86 | 135 | 8.0 | 17.0 | 0.00 | 0.00 | 0.00 | 24 | 1001.2 |
| 20260904225054 | 86 | 139 | 5.0 | 17.0 | 0.00 | 0.00 | 0.00 | 25 | 1001.2 |
| 20260904224554 | 86 | 135 | 7.0 | 19.0 | 0.00 | 0.00 | 0.00 | 25 | 1001.3 |
| 20260904224054 | 85 | 133 | 8.0 | 19.0 | 0.00 | 0.00 | 0.00 | 25 | 1001.2 |
| 20260904223553 | 85 | 141 | 4.0 | 15.0 | 0.00 | 0.00 | 0.00 | 25 | 1001.3 |
| 20260904223056 | 86 | 139 | 4.0 | 15.0 | 0.00 | 0.00 | 0.00 | 25 | 1001.3 |
| 20260904222554 | 86 | 141 | 4.0 | 18.0 | 0.00 | 0.00 | 0.00 | 25 | 1001.4 |
| 20260904222052 | 87 | 129 | 4.0 | 18.0 | 0.00 | 0.00 | 0.00 | 24 | 1001.4 |
| 20260904221555 | 87 | 138 | 3.0 | 12.0 | 0.00 | 0.00 | 0.00 | 24 | 1001.3 |
| 20260904221052 | 87 | 137 | 2.0 | 10.0 | 0.00 | 0.00 | 0.00 | 25 | 1001.3 |
| 20260904220552 | 86 | 143 | 2.0 | 12.0 | 0.00 | 0.00 | 0.00 | 25 | 1001.4 |
| 20260904220106 | 87 | 144 | 3.0 | 12.0 | 0.00 | 0.00 | 0.00 | 23 | 1001.4 |
| 20260904215552 | 87 | 133 | 5.0 | 11.0 | 0.00 | 0.00 | 0.00 | 23 | 1001.5 |
| 20260904215055 | 88 | 124 | 2.0 | 13.0 | 0.00 | 0.00 | 0.00 | 23 | 1001.5 |
| 20260904214552 | 88 | 137 | 1.0 | 13.0 | 0.00 | 0.00 | 0.00 | 24 | 1001.6 |
| 20260904214050 | 88 | 140 | 2.0 | 14.0 | 0.00 | 0.00 | 0.00 | 24 | 1001.7 |
| 20260904213549 | 88 | 140 | 5.0 | 14.0 | 0.00 | 0.00 | 0.00 | 23 | 1001.7 |
| 20260904213050 | 88 | 139 | 5.0 | 17.0 | 0.00 | 0.00 | 0.00 | 23 | 1001.8 |
| 20260904212552 | 87 | 138 | 8.0 | 17.0 | 0.00 | 0.00 | 0.00 | 23 | 1001.9 |
| 20260904212050 | 87 | 143 | 4.0 | 12.0 | 0.00 | 0.00 | 0.00 | 23 | 1001.9 |
| 20260904211555 | 87 | 142 | 2.0 | 10.0 | 0.00 | 0.00 | 0.00 | 23 | 1001.8 |
| 20260904211049 | 88 | 146 | 0.0 | 8.0 | 0.00 | 0.00 | 0.00 | 23 | 1002.0 |
| 20260904210549 | 88 | 147 | 0.0 | 11.0 | 0.00 | 0.00 | 0.00 | 21 | 1002.0 |
| 20260904210057 | 89 | 147 | 5.0 | 16.0 | 0.00 | 0.00 | 0.00 | 20 | 1002.1 |
| 20260904205549 | 89 | 147 | 5.0 | 16.0 | 0.00 | 0.00 | 0.00 | 21 | 1002.1 |
| 20260904205048 | 89 | 157 | 2.0 | 10.0 | 0.00 | 0.00 | 0.00 | 22 | 1002.1 |
| 20260904204547 | 89 | 159 | 0.0 | 12.0 | 0.00 | 0.00 | 0.00 | 20 | 1002.2 |
| 20260904204047 | 89 | 160 | 1.0 | 12.0 | 0.00 | 0.00 | 0.00 | 20 | 1002.3 |
| 20260904203547 | 90 | 168 | 2.0 | 9.0 | 0.00 | 0.00 | 0.00 | 20 | 1002.4 |
| 20260904203046 | 90 | 218 | 0.0 | 3.0 | 0.00 | 0.00 | 0.00 | 19 | 1002.5 |
| 20260904202545 | 90 | 217 | 0.0 | 0.0 | 0.00 | 0.00 | 0.00 | 21 | 1002.5 |
| 20260904202045 | 90 | 272 | 0.0 | 4.0 | 0.00 | 0.00 | 0.00 | 22 | 1002.5 |
| 20260904201548 | 90 | 314 | 0.0 | 4.0 | 0.00 | 0.00 | 0.00 | 20 | 1002.5 |
| 20260904201044 | 90 | 192 | 0.0 | 2.0 | 0.00 | 0.00 | 0.00 | 19 | 1002.5 |
| 20260904200545 | 90 | 147 | 0.0 | 4.0 | 0.00 | 0.00 | 0.00 | 20 | 1002.6 |
| 20260904195543 | 90 | 148 | 0.0 | 9.0 | 0.00 | 0.00 | 0.00 | 20 | 1002.8 |
| 20260904195043 | 90 | 148 | 4.0 | 9.0 | 0.00 | 0.00 | 0.00 | 19 | 1002.9 |
| 20260904194622 | 90 | 148 | 2.0 | 8.0 | 0.00 | 0.00 | 0.00 | 18 | 1002.9 |
| 20260904194041 | 90 | 147 | 0.0 | 11.0 | 0.00 | 0.00 | 0.00 | 20 | 1002.9 |
| 20260904193542 | 89 | 147 | 0.0 | 12.0 | 0.00 | 0.00 | 0.00 | 22 | 1003.0 |
| 20260904193044 | 89 | 148 | 3.0 | 14.0 | 0.00 | 0.00 | 0.00 | 20 | 1003.0 |
| 20260904192540 | 90 | 143 | 4.0 | 11.0 | 0.00 | 0.00 | 0.00 | 19 | 1003.0 |
| 20260904192041 | 90 | 225 | 0.0 | 0.0 | 0.00 | 0.00 | 0.00 | 19 | 1003.1 |
| 20260904191540 | 91 | 227 | 0.0 | 0.0 | 0.00 | 0.00 | 0.00 | 19 | 1003.2 |